^^
Station Historical Data
Daily Summary for January 25, 2018 Units:  English    Metric   Both
« Previous Day
Next Day »
Daily Weekly Monthly Yearly Custom
  High: Low: Average:
Temperature: TemperatureF °F 62.4 °F 77.4 °F
Dew Point: DewpointF °F 37.6 °F 41.5 °F
Humidity: Humidity% 18% 29%
Wind Speed: WindSpeedMPHmph 0.0mph 1.5mph
Wind Gust: WindSpeedGustMPHmph - -
Wind- - SW
Pressure: PressureIn in 29.55 in -
Precipitation: 0.00 in    
Historical Graphs
 
 
Tabular Data for January 25, 2018
Time Temperature Dew Point Pressure Wind Wind Speed Wind Gust Humidity Rainfall Rate (Hourly) solar Conditions
TemperatureF °F DewpointF °F PressureIn in Calm     Humidity% HourlyPrecipIn in SolarRadiationWatts/m^2 W/m2 Conditions
00:01 69.8 °F 37.8 °F 29.67 in Calm     31% 0.00 in 0.0 W/m2
00:07 69.6 °F 38.5 °F 29.67 in Calm     32% 0.00 in 0.0 W/m2
00:12 69.4 °F 38.3 °F 29.68 in Calm     32% 0.00 in 0.0 W/m2
00:17 69.4 °F 38.3 °F 29.67 in Calm     32% 0.00 in 0.0 W/m2
00:22 69.3 °F 38.8 °F 29.67 in Calm     33% 0.00 in 0.0 W/m2
00:27 69.3 °F 38.8 °F 29.67 in Calm     33% 0.00 in 0.0 W/m2
00:32 69.1 °F 38.8 °F 29.67 in Calm     33% 0.00 in 0.0 W/m2
00:37 69.1 °F 39.6 °F 29.67 in Calm     34% 0.00 in 0.0 W/m2
00:42 68.7 °F 39.2 °F 29.67 in Calm     34% 0.00 in 0.0 W/m2
00:48 68.7 °F 39.2 °F 29.67 in Calm     34% 0.00 in 0.0 W/m2
00:53 68.5 °F 39.0 °F 29.67 in Calm     34% 0.00 in 0.0 W/m2
00:58 68.5 °F 39.0 °F 29.66 in Calm   1.0 mph 34% 0.00 in 0.0 W/m2
01:03 68.4 °F 38.8 °F 29.66 in Calm     34% 0.00 in 0.0 W/m2
01:08 68.4 °F 38.8 °F 29.67 in Calm     34% 0.00 in 0.0 W/m2
01:13 68.2 °F 38.7 °F 29.66 in Calm     34% 0.00 in 0.0 W/m2
01:18 68.2 °F 38.7 °F 29.67 in Calm     34% 0.00 in 0.0 W/m2
01:23 68.0 °F 39.4 °F 29.67 in Calm     35% 0.00 in 0.0 W/m2
01:29 67.8 °F 39.9 °F 29.67 in Calm     36% 0.00 in 0.0 W/m2
01:34 67.6 °F 39.0 °F 29.66 in Calm     35% 0.00 in 0.0 W/m2
01:39 67.5 °F 39.6 °F 29.66 in Calm     36% 0.00 in 0.0 W/m2
01:44 67.3 °F 39.4 °F 29.66 in Calm     36% 0.00 in 0.0 W/m2
01:49 66.9 °F 39.0 °F 29.66 in Calm     36% 0.00 in 0.0 W/m2
01:54 66.7 °F 39.0 °F 29.66 in Calm     36% 0.00 in 0.0 W/m2
01:59 66.6 °F 38.8 °F 29.67 in Calm     36% 0.00 in 0.0 W/m2
02:05 66.6 °F 39.6 °F 29.67 in Calm     37% 0.00 in 0.0 W/m2
02:10 66.4 °F 39.4 °F 29.66 in Calm     37% 0.00 in 0.0 W/m2
02:15 66.0 °F 39.7 °F 29.67 in Calm     38% 0.00 in 0.0 W/m2
02:20 66.0 °F 39.7 °F 29.66 in Calm     38% 0.00 in 0.0 W/m2
02:25 65.8 °F 39.6 °F 29.66 in Calm     38% 0.00 in 0.0 W/m2
02:30 65.7 °F 39.4 °F 29.66 in SSE 2.0 mph 2.0 mph 38% 0.00 in 0.0 W/m2
02:35 65.5 °F 39.2 °F 29.66 in Calm     38% 0.00 in 0.0 W/m2
02:40 65.3 °F 39.0 °F 29.66 in Calm     38% 0.00 in 0.0 W/m2
02:46 65.1 °F 39.6 °F 29.66 in Calm     39% 0.00 in 0.0 W/m2
02:51 64.9 °F 39.4 °F 29.66 in Calm     39% 0.00 in 0.0 W/m2
02:57 64.8 °F 39.2 °F 29.66 in Calm     39% 0.00 in 0.0 W/m2
03:02 64.8 °F 38.5 °F 29.66 in Calm   1.0 mph 38% 0.00 in 0.0 W/m2
03:07 64.6 °F 38.5 °F 29.66 in Calm   1.0 mph 38% 0.00 in 0.0 W/m2
03:12 64.2 °F 38.1 °F 29.66 in Calm     38% 0.00 in 0.0 W/m2
03:17 64.2 °F 38.1 °F 29.66 in SE 0.9 mph 1.0 mph 38% 0.00 in 0.0 W/m2
03:22 64.0 °F 37.9 °F 29.66 in Calm   1.0 mph 38% 0.00 in 0.0 W/m2
03:27 64.0 °F 37.9 °F 29.65 in Calm   1.0 mph 38% 0.00 in 0.0 W/m2
03:32 63.9 °F 37.8 °F 29.65 in Calm   1.0 mph 38% 0.00 in 0.0 W/m2
03:37 63.9 °F 37.8 °F 29.65 in Calm   1.0 mph 38% 0.00 in 0.0 W/m2
03:43 63.7 °F 38.3 °F 29.65 in SE 0.9 mph 1.0 mph 39% 0.00 in 0.0 W/m2
03:48 63.7 °F 37.6 °F 29.65 in Calm   1.0 mph 38% 0.00 in 0.0 W/m2
03:53 63.7 °F 38.3 °F 29.65 in Calm   1.0 mph 39% 0.00 in 0.0 W/m2
03:58 63.5 °F 38.1 °F 29.65 in Calm   1.0 mph 39% 0.00 in 0.0 W/m2
04:03 63.3 °F 37.9 °F 29.65 in Calm     39% 0.00 in 0.0 W/m2
04:08 63.3 °F 38.7 °F 29.65 in Calm     40% 0.00 in 0.0 W/m2
04:13 63.3 °F 38.7 °F 29.65 in Calm     40% 0.00 in 0.0 W/m2
04:18 63.1 °F 38.5 °F 29.65 in Calm     40% 0.00 in 0.0 W/m2
04:23 63.0 °F 38.8 °F 29.65 in Calm     41% 0.00 in 0.0 W/m2
04:28 62.8 °F 38.7 °F 29.65 in Calm     41% 0.00 in 0.0 W/m2
04:34 62.6 °F 38.5 °F 29.65 in Calm     41% 0.00 in 0.0 W/m2
04:39 62.4 °F 39.0 °F 29.65 in Calm     42% 0.00 in 0.0 W/m2
04:44 62.4 °F 38.5 °F 29.65 in Calm   1.0 mph 41% 0.00 in 0.0 W/m2
04:49 62.4 °F 38.5 °F 29.65 in Calm     41% 0.00 in 0.0 W/m2
04:54 62.4 °F 38.5 °F 29.66 in Calm     41% 0.00 in 0.0 W/m2
04:59 62.4 °F 37.8 °F 29.66 in Calm   1.0 mph 40% 0.00 in 0.0 W/m2
05:04 62.8 °F 38.1 °F 29.65 in Calm     40% 0.00 in 0.0 W/m2
05:09 62.8 °F 38.1 °F 29.66 in Calm     40% 0.00 in 0.0 W/m2
05:14 63.0 °F 38.8 °F 29.66 in Calm     41% 0.00 in 0.0 W/m2
05:20 63.1 °F 38.5 °F 29.66 in Calm   2.0 mph 40% 0.00 in 0.0 W/m2
05:25 63.1 °F 38.5 °F 29.66 in Calm   4.0 mph 40% 0.00 in 0.0 W/m2
05:30 63.1 °F 38.5 °F 29.66 in Calm   1.0 mph 40% 0.00 in 0.0 W/m2
05:35 63.1 °F 38.5 °F 29.66 in Calm   2.0 mph 40% 0.00 in 0.0 W/m2
05:40 63.1 °F 38.5 °F 29.66 in Calm     40% 0.00 in 0.0 W/m2
05:45 63.1 °F 38.5 °F 29.66 in Calm   1.0 mph 40% 0.00 in 0.0 W/m2
05:50 63.3 °F 38.7 °F 29.66 in Calm   1.0 mph 40% 0.00 in 0.0 W/m2
05:55 63.3 °F 37.9 °F 29.66 in Calm   1.0 mph 39% 0.00 in 0.0 W/m2
06:01 63.5 °F 38.1 °F 29.67 in Calm   1.0 mph 39% 0.00 in 0.0 W/m2
06:06 63.7 °F 38.3 °F 29.67 in Calm     39% 0.00 in 0.0 W/m2
06:11 63.7 °F 38.8 °F 29.67 in Calm     40% 0.00 in 0.0 W/m2
06:16 63.7 °F 39.6 °F 29.67 in Calm     41% 0.00 in 0.0 W/m2
06:21 63.7 °F 38.8 °F 29.67 in Calm     40% 0.00 in 0.0 W/m2
06:26 63.9 °F 38.5 °F 29.67 in East 0.9 mph 1.0 mph 39% 0.00 in 0.0 W/m2
06:31 63.9 °F 38.5 °F 29.67 in Calm   1.0 mph 39% 0.00 in 7.0 W/m2
06:36 63.9 °F 38.5 °F 29.68 in Calm   1.0 mph 39% 0.00 in 11.0 W/m2
06:42 63.9 °F 38.5 °F 29.68 in Calm     39% 0.00 in 14.0 W/m2
06:47 64.0 °F 38.7 °F 29.68 in Calm   1.0 mph 39% 0.00 in 19.0 W/m2
06:52 64.0 °F 38.7 °F 29.68 in East 0.9 mph 1.0 mph 39% 0.00 in 21.0 W/m2
06:57 64.2 °F 38.7 °F 29.68 in Calm   2.0 mph 39% 0.00 in 18.0 W/m2
07:02 64.2 °F 38.7 °F 29.68 in Calm   2.0 mph 39% 0.00 in 18.0 W/m2
07:07 64.2 °F 38.7 °F 29.69 in NE 2.9 mph 4.0 mph 39% 0.00 in 19.0 W/m2
07:22 64.8 °F 39.2 °F 29.70 in Calm   1.0 mph 39% 0.00 in 25.0 W/m2
07:32 64.9 °F 39.4 °F 29.70 in Calm     39% 0.00 in 28.0 W/m2
07:43 65.5 °F 39.9 °F 29.70 in Calm     39% 0.00 in 100.0 W/m2
07:53 66.2 °F 39.9 °F 29.70 in Calm   1.0 mph 38% 0.00 in 239.0 W/m2
08:03 66.9 °F 40.5 °F 29.70 in Calm     38% 0.00 in 330.0 W/m2
08:13 68.4 °F 39.6 °F 29.70 in Calm   1.0 mph 35% 0.00 in 371.0 W/m2
08:24 70.2 °F 38.8 °F 29.70 in Calm     32% 0.00 in 413.0 W/m2
08:34 71.4 °F 39.2 °F 29.70 in Calm     31% 0.00 in 454.0 W/m2
08:43 73.8 °F 40.5 °F 29.70 in Calm   1.0 mph 30% 0.00 in 480.0 W/m2
08:48 74.8 °F 40.5 °F 29.70 in NNW 0.9 mph 2.0 mph 29% 0.00 in 512.0 W/m2
08:53 75.0 °F 40.6 °F 29.70 in NW 0.9 mph 1.0 mph 29% 0.00 in 529.0 W/m2
08:59 75.2 °F 40.8 °F 29.70 in Calm   1.0 mph 29% 0.00 in 545.0 W/m2
09:04 75.6 °F 41.0 °F 29.70 in NNW 0.9 mph 2.0 mph 29% 0.00 in 564.0 W/m2
09:09 76.5 °F 41.9 °F 29.70 in West 0.9 mph 4.0 mph 29% 0.00 in 557.0 W/m2
09:14 76.6 °F 42.1 °F 29.70 in Calm   1.0 mph 29% 0.00 in 169.0 W/m2
09:19 76.5 °F 42.8 °F 29.70 in Calm   1.0 mph 30% 0.00 in 464.0 W/m2
09:24 76.6 °F 42.1 °F 29.70 in Calm   2.0 mph 29% 0.00 in 424.0 W/m2
09:29 76.8 °F 42.1 °F 29.70 in NNW 2.0 mph 2.0 mph 29% 0.00 in 274.0 W/m2
09:34 77.4 °F 42.6 °F 29.70 in Calm   1.0 mph 29% 0.00 in 462.0 W/m2
09:39 77.5 °F 42.8 °F 29.70 in NNW 2.0 mph 5.0 mph 29% 0.00 in 445.0 W/m2
09:44 78.1 °F 43.2 °F 29.70 in NW 0.9 mph 2.0 mph 29% 0.00 in 441.0 W/m2
09:50 78.3 °F 43.3 °F 29.70 in NNW 2.0 mph 5.0 mph 29% 0.00 in 327.0 W/m2
09:55 78.6 °F 44.6 °F 29.70 in Calm   4.0 mph 30% 0.00 in 752.0 W/m2
10:00 79.0 °F 45.7 °F 29.70 in Calm     31% 0.00 in 798.0 W/m2
10:05 79.3 °F 45.1 °F 29.69 in South 0.9 mph 2.0 mph 30% 0.00 in 835.0 W/m2
10:10 79.9 °F 45.7 °F 29.69 in West 0.9 mph 5.0 mph 30% 0.00 in 914.0 W/m2
10:15 80.1 °F 45.9 °F 29.69 in NNW 0.9 mph 1.0 mph 30% 0.00 in 856.0 W/m2
10:20 80.6 °F 47.1 °F 29.69 in WSW 2.0 mph 5.0 mph 31% 0.00 in 925.0 W/m2
10:25 80.6 °F 46.2 °F 29.69 in SSW 2.0 mph 5.0 mph 30% 0.00 in 1016.0 W/m2
10:31 81.0 °F 46.6 °F 29.68 in Calm   1.0 mph 30% 0.00 in 953.0 W/m2
10:36 81.7 °F 46.4 °F 29.68 in Calm   3.0 mph 29% 0.00 in 1158.0 W/m2
10:41 82.2 °F 46.8 °F 29.68 in Calm   5.0 mph 29% 0.00 in 267.0 W/m2
10:46 82.2 °F 45.9 °F 29.68 in Calm   4.0 mph 28% 0.00 in 232.0 W/m2
10:51 82.0 °F 45.7 °F 29.68 in Calm     28% 0.00 in 960.0 W/m2
10:56 82.2 °F 45.9 °F 29.68 in Calm   3.0 mph 28% 0.00 in 970.0 W/m2
11:01 82.4 °F 46.0 °F 29.68 in Calm   3.0 mph 28% 0.00 in 1048.0 W/m2
11:06 82.4 °F 45.1 °F 29.68 in Calm   4.0 mph 27% 0.00 in 1014.0 W/m2
11:12 82.6 °F 46.2 °F 29.68 in Calm   5.0 mph 28% 0.00 in 997.0 W/m2
11:18 83.5 °F 46.0 °F 29.68 in NNW 2.9 mph 6.0 mph 27% 0.00 in 974.0 W/m2
11:23 84.2 °F 45.7 °F 29.68 in WNW 4.9 mph 7.0 mph 26% 0.00 in 972.0 W/m2
11:28 84.2 °F 45.7 °F 29.67 in NNE 2.0 mph 8.0 mph 26% 0.00 in 977.0 W/m2
11:33 84.7 °F 43.9 °F 29.67 in WSW 4.9 mph 7.0 mph 24% 0.00 in 979.0 W/m2
11:38 84.9 °F 44.1 °F 29.67 in NNE 2.9 mph 6.0 mph 24% 0.00 in 991.0 W/m2
11:43 85.6 °F 44.8 °F 29.67 in NNE 2.9 mph 4.0 mph 24% 0.00 in 997.0 W/m2
11:48 86.2 °F 44.1 °F 29.67 in WNW 4.0 mph 5.0 mph 23% 0.00 in 1004.0 W/m2
11:53 86.5 °F 43.2 °F 29.67 in WNW 2.0 mph 6.0 mph 22% 0.00 in 1011.0 W/m2
11:59 87.3 °F 43.7 °F 29.67 in NNW 2.9 mph 8.0 mph 22% 0.00 in 1020.0 W/m2
12:04 87.6 °F 44.1 °F 29.67 in North 2.9 mph 12.0 mph 22% 0.00 in 1028.0 W/m2
12:09 88.2 °F 44.6 °F 29.66 in WSW 2.0 mph 5.0 mph 22% 0.00 in 1035.0 W/m2
12:14 88.2 °F 44.6 °F 29.66 in WSW 4.0 mph 4.0 mph 22% 0.00 in 1044.0 W/m2
12:19 87.6 °F 44.1 °F 29.66 in SW 0.9 mph 6.0 mph 22% 0.00 in 1074.0 W/m2
12:25 86.7 °F 44.4 °F 29.65 in SSW 4.9 mph 5.0 mph 23% 0.00 in 1102.0 W/m2
12:30 86.7 °F 44.4 °F 29.65 in WNW 6.9 mph 17.0 mph 23% 0.00 in 1102.0 W/m2
12:35 87.3 °F 45.0 °F 29.65 in West 6.0 mph 9.0 mph 23% 0.00 in 1095.0 W/m2
12:40 87.4 °F 45.1 °F 29.65 in WSW 2.0 mph 5.0 mph 23% 0.00 in 1076.0 W/m2
12:45 87.4 °F 43.9 °F 29.65 in WNW 0.9 mph 6.0 mph 22% 0.00 in 1060.0 W/m2
12:51 88.0 °F 44.4 °F 29.65 in West 6.9 mph 8.0 mph 22% 0.00 in 1058.0 W/m2
12:56 88.5 °F 44.8 °F 29.64 in WNW 2.0 mph 11.0 mph 22% 0.00 in 1058.0 W/m2
13:01 89.4 °F 45.5 °F 29.64 in NW 2.9 mph 4.0 mph 22% 0.00 in 1063.0 W/m2
13:06 89.8 °F 44.6 °F 29.64 in WSW 4.0 mph 7.0 mph 21% 0.00 in 1079.0 W/m2
13:11 89.1 °F 44.1 °F 29.64 in NE 2.0 mph 6.0 mph 21% 0.00 in 1130.0 W/m2
13:16 88.7 °F 43.7 °F 29.64 in NW 6.0 mph 7.0 mph 21% 0.00 in 1111.0 W/m2
13:21 88.9 °F 43.9 °F 29.64 in Calm   7.0 mph 21% 0.00 in 1092.0 W/m2
13:26 89.4 °F 44.4 °F 29.63 in WSW 4.9 mph 8.0 mph 21% 0.00 in 1088.0 W/m2
13:31 89.8 °F 44.6 °F 29.63 in NNW 2.0 mph 8.0 mph 21% 0.00 in 1153.0 W/m2
13:36 90.3 °F 45.1 °F 29.63 in WSW 2.0 mph 6.0 mph 21% 0.00 in 1146.0 W/m2
13:42 89.6 °F 43.2 °F 29.63 in Calm   6.0 mph 20% 0.00 in 1218.0 W/m2
13:47 89.8 °F 44.6 °F 29.63 in North 4.0 mph 7.0 mph 21% 0.00 in 1236.0 W/m2
13:52 90.7 °F 44.1 °F 29.62 in NW 4.9 mph 11.0 mph 20% 0.00 in 1062.0 W/m2
13:57 91.9 °F 45.1 °F 29.62 in SSW 2.9 mph 10.0 mph 20% 0.00 in 1236.0 W/m2
14:02 92.7 °F 44.4 °F 29.62 in NNE 2.9 mph 9.0 mph 19% 0.00 in 1322.0 W/m2
14:07 93.0 °F 43.3 °F 29.62 in NNW 4.9 mph 5.0 mph 18% 0.00 in 1225.0 W/m2
14:12 92.7 °F 44.4 °F 29.62 in Calm   4.0 mph 19% 0.00 in 587.0 W/m2
14:17 92.7 °F 44.4 °F 29.61 in WSW 2.9 mph 5.0 mph 19% 0.00 in 640.0 W/m2
14:22 91.9 °F 43.7 °F 29.61 in Calm   3.0 mph 19% 0.00 in 471.0 W/m2
14:28 91.8 °F 45.0 °F 29.61 in North 2.0 mph 9.0 mph 20% 0.00 in 563.0 W/m2
14:33 91.8 °F 45.0 °F 29.61 in NNE 6.9 mph 7.0 mph 20% 0.00 in 563.0 W/m2
14:38 91.8 °F 45.0 °F 29.61 in Calm   2.0 mph 20% 0.00 in 1220.0 W/m2
14:43 92.5 °F 44.2 °F 29.61 in SW 6.0 mph 8.0 mph 19% 0.00 in 1153.0 W/m2
14:48 92.5 °F 44.2 °F 29.61 in West 2.9 mph 9.0 mph 19% 0.00 in 1162.0 W/m2
14:53 91.6 °F 44.8 °F 29.60 in NNW 11.0 mph 11.0 mph 20% 0.00 in 390.0 W/m2
14:58 91.6 °F 43.5 °F 29.60 in North 2.0 mph 6.0 mph 19% 0.00 in 501.0 W/m2
15:03 91.8 °F 45.0 °F 29.60 in West 6.9 mph 10.0 mph 20% 0.00 in 501.0 W/m2
15:08 91.6 °F 44.8 °F 29.60 in SW 0.9 mph 7.0 mph 20% 0.00 in 606.0 W/m2
15:14 91.8 °F 43.7 °F 29.60 in WNW 2.0 mph 5.0 mph 19% 0.00 in 1056.0 W/m2
15:19 91.0 °F 43.0 °F 29.60 in WSW 4.0 mph 6.0 mph 19% 0.00 in 304.0 W/m2
15:24 90.0 °F 43.5 °F 29.60 in Calm   5.0 mph 20% 0.00 in 281.0 W/m2
15:29 90.1 °F 43.7 °F 29.59 in NNE 2.9 mph 10.0 mph 20% 0.00 in 1028.0 W/m2
15:34 91.0 °F 44.4 °F 29.59 in Calm   5.0 mph 20% 0.00 in 1114.0 W/m2
15:39 91.6 °F 44.8 °F 29.59 in North 2.0 mph 7.0 mph 20% 0.00 in 1104.0 W/m2
15:44 91.8 °F 45.0 °F 29.59 in NW 2.9 mph 9.0 mph 20% 0.00 in 1053.0 W/m2
15:49 92.3 °F 44.1 °F 29.59 in Calm   10.0 mph 19% 0.00 in 1055.0 W/m2
15:55 92.7 °F 44.4 °F 29.58 in Calm   7.0 mph 19% 0.00 in 1055.0 W/m2
16:00 92.8 °F 44.6 °F 29.58 in NNE 2.0 mph 7.0 mph 19% 0.00 in 918.0 W/m2
16:05 92.8 °F 44.6 °F 29.58 in NNW 2.9 mph 4.0 mph 19% 0.00 in 279.0 W/m2
16:10 92.5 °F 44.2 °F 29.57 in North 9.0 mph 9.0 mph 19% 0.00 in 909.0 W/m2
16:15 92.5 °F 44.2 °F 29.57 in NNE 4.9 mph 8.0 mph 19% 0.00 in 898.0 W/m2
16:20 92.7 °F 44.4 °F 29.57 in North 2.0 mph 7.0 mph 19% 0.00 in 322.0 W/m2
16:25 92.8 °F 44.6 °F 29.57 in Calm   6.0 mph 19% 0.00 in 399.0 W/m2
16:30 92.5 °F 44.2 °F 29.57 in West 0.9 mph 9.0 mph 19% 0.00 in 255.0 W/m2
16:35 91.8 °F 43.7 °F 29.56 in Calm   2.0 mph 19% 0.00 in 225.0 W/m2
16:40 91.2 °F 44.6 °F 29.56 in Calm   7.0 mph 20% 0.00 in 308.0 W/m2
16:45 90.9 °F 44.2 °F 29.56 in Calm   3.0 mph 20% 0.00 in 264.0 W/m2
16:51 90.5 °F 45.3 °F 29.56 in NNW 0.9 mph 3.0 mph 21% 0.00 in 207.0 W/m2
16:56 90.3 °F 43.9 °F 29.56 in Calm   4.0 mph 20% 0.00 in 246.0 W/m2
17:01 90.1 °F 45.0 °F 29.56 in WSW 4.0 mph 6.0 mph 21% 0.00 in 615.0 W/m2
17:06 90.7 °F 44.1 °F 29.56 in West 0.9 mph 3.0 mph 20% 0.00 in 285.0 W/m2
17:12 90.7 °F 44.1 °F 29.56 in West 2.0 mph 3.0 mph 20% 0.00 in 207.0 W/m2
17:17 90.1 °F 43.7 °F 29.56 in West 2.0 mph 9.0 mph 20% 0.00 in 308.0 W/m2
17:22 89.2 °F 44.2 °F 29.55 in West 0.9 mph 4.0 mph 21% 0.00 in 195.0 W/m2
17:27 88.5 °F 43.5 °F 29.56 in WSW 4.9 mph 7.0 mph 21% 0.00 in 232.0 W/m2
17:32 88.2 °F 43.3 °F 29.56 in WSW 0.9 mph 5.0 mph 21% 0.00 in 162.0 W/m2
17:37 87.8 °F 43.0 °F 29.56 in Calm   5.0 mph 21% 0.00 in 127.0 W/m2
17:43 87.6 °F 44.1 °F 29.56 in Calm   7.0 mph 22% 0.00 in 114.0 W/m2
17:48 87.4 °F 43.9 °F 29.56 in NNE 0.9 mph 1.0 mph 22% 0.00 in 91.0 W/m2
17:53 87.4 °F 43.9 °F 29.56 in Calm   1.0 mph 22% 0.00 in 97.0 W/m2
17:58 87.3 °F 43.7 °F 29.56 in SW 2.0 mph 3.0 mph 22% 0.00 in 105.0 W/m2
18:03 87.1 °F 43.7 °F 29.57 in SW 2.9 mph 9.0 mph 22% 0.00 in 120.0 W/m2
18:08 86.7 °F 43.3 °F 29.57 in WSW 0.9 mph 9.0 mph 22% 0.00 in 237.0 W/m2
18:13 87.3 °F 43.7 °F 29.57 in Calm   8.0 mph 22% 0.00 in 348.0 W/m2
18:18 88.0 °F 44.4 °F 29.57 in WNW 4.9 mph 5.0 mph 22% 0.00 in 311.0 W/m2
18:23 88.5 °F 43.5 °F 29.57 in Calm   7.0 mph 21% 0.00 in 269.0 W/m2
18:29 88.9 °F 43.9 °F 29.57 in WSW 2.0 mph 8.0 mph 21% 0.00 in 257.0 W/m2
18:34 88.7 °F 43.7 °F 29.57 in West 2.9 mph 9.0 mph 21% 0.00 in 237.0 W/m2
18:39 88.5 °F 43.5 °F 29.57 in WSW 6.9 mph 8.0 mph 21% 0.00 in 213.0 W/m2
18:44 88.3 °F 43.5 °F 29.57 in West 6.0 mph 6.0 mph 21% 0.00 in 188.0 W/m2
18:49 87.8 °F 43.0 °F 29.58 in WSW 2.9 mph 7.0 mph 21% 0.00 in 172.0 W/m2
18:54 87.1 °F 42.4 °F 29.58 in WSW 10.1 mph 10.1 mph 21% 0.00 in 91.0 W/m2
18:59 86.5 °F 41.9 °F 29.58 in West 8.1 mph 8.1 mph 21% 0.00 in 62.0 W/m2
19:04 86.2 °F 42.8 °F 29.59 in West 2.9 mph 9.0 mph 22% 0.00 in 60.0 W/m2
19:09 85.8 °F 41.4 °F 29.59 in West 0.9 mph 8.0 mph 21% 0.00 in 54.0 W/m2
19:14 85.5 °F 41.0 °F 29.59 in WSW 2.0 mph 10.0 mph 21% 0.00 in 54.0 W/m2
19:20 84.9 °F 40.6 °F 29.60 in WSW 8.1 mph 10.0 mph 21% 0.00 in 44.0 W/m2
19:25 84.6 °F 41.5 °F 29.60 in WSW 6.9 mph 8.0 mph 22% 0.00 in 26.0 W/m2
19:30 84.0 °F 41.0 °F 29.61 in West 2.9 mph 5.0 mph 22% 0.00 in 14.0 W/m2
19:35 83.8 °F 43.2 °F 29.61 in Calm   5.0 mph 24% 0.00 in 7.0 W/m2
19:40 83.7 °F 44.1 °F 29.62 in SE 6.9 mph 9.0 mph 25% 0.00 in 0.0 W/m2
19:45 83.3 °F 44.8 °F 29.62 in South 0.9 mph 11.0 mph 26% 0.00 in 0.0 W/m2
19:50 82.9 °F 44.6 °F 29.62 in SE 0.9 mph 2.0 mph 26% 0.00 in 0.0 W/m2
19:55 82.9 °F 44.6 °F 29.62 in SSE 2.9 mph 9.0 mph 26% 0.00 in 0.0 W/m2
20:00 82.8 °F 44.4 °F 29.62 in East 4.0 mph 5.0 mph 26% 0.00 in 0.0 W/m2
20:06 82.6 °F 44.2 °F 29.62 in SSE 4.0 mph 7.0 mph 26% 0.00 in 0.0 W/m2
20:11 82.4 °F 46.0 °F 29.63 in SSE 4.0 mph 7.0 mph 28% 0.00 in 0.0 W/m2
20:16 82.0 °F 45.7 °F 29.63 in Calm   5.0 mph 28% 0.00 in 0.0 W/m2
20:21 81.9 °F 44.6 °F 29.63 in WSW 2.0 mph 4.0 mph 27% 0.00 in 0.0 W/m2
20:26 81.3 °F 39.9 °F 29.64 in WSW 2.9 mph 9.0 mph 23% 0.00 in 0.0 W/m2
20:31 81.0 °F 40.8 °F 29.64 in WSW 2.9 mph 9.0 mph 24% 0.00 in 0.0 W/m2
20:36 80.4 °F 40.3 °F 29.64 in West 2.0 mph 10.0 mph 24% 0.00 in 0.0 W/m2
20:41 80.1 °F 40.1 °F 29.65 in SW 6.0 mph 12.0 mph 24% 0.00 in 0.0 W/m2
20:46 79.5 °F 40.6 °F 29.65 in West 6.9 mph 10.0 mph 25% 0.00 in 0.0 W/m2
20:52 79.0 °F 40.1 °F 29.65 in WSW 2.9 mph 11.0 mph 25% 0.00 in 0.0 W/m2
20:57 78.4 °F 39.7 °F 29.65 in South 2.0 mph 10.0 mph 25% 0.00 in 0.0 W/m2
21:02 78.3 °F 39.6 °F 29.65 in SSW 2.9 mph 8.0 mph 25% 0.00 in 0.0 W/m2
21:07 77.7 °F 40.1 °F 29.65 in WSW 0.9 mph 10.0 mph 26% 0.00 in 0.0 W/m2
21:12 77.5 °F 39.9 °F 29.66 in WSW 2.0 mph 5.0 mph 26% 0.00 in 0.0 W/m2
21:17 77.4 °F 39.7 °F 29.66 in WSW 0.9 mph 8.0 mph 26% 0.00 in 0.0 W/m2
21:22 77.2 °F 39.6 °F 29.66 in WSW 4.0 mph 8.0 mph 26% 0.00 in 0.0 W/m2
21:27 76.8 °F 39.4 °F 29.66 in South 2.0 mph 6.0 mph 26% 0.00 in 0.0 W/m2
21:32 76.6 °F 40.1 °F 29.66 in SSW 2.9 mph 5.0 mph 27% 0.00 in 0.0 W/m2
21:37 76.3 °F 39.9 °F 29.67 in WSW 8.1 mph 8.1 mph 27% 0.00 in 0.0 W/m2
21:42 75.9 °F 39.6 °F 29.67 in SSW 2.0 mph 5.0 mph 27% 0.00 in 0.0 W/m2
21:47 75.7 °F 39.4 °F 29.67 in SW 4.0 mph 6.0 mph 27% 0.00 in 0.0 W/m2
21:52 75.6 °F 40.1 °F 29.67 in SW 2.0 mph 7.0 mph 28% 0.00 in 0.0 W/m2
21:57 75.6 °F 40.1 °F 29.67 in WSW 2.0 mph 7.0 mph 28% 0.00 in 0.0 W/m2
22:03 75.4 °F 40.1 °F 29.67 in SW 2.9 mph 10.0 mph 28% 0.00 in 0.0 W/m2
22:08 75.0 °F 39.7 °F 29.67 in SW 2.9 mph 7.0 mph 28% 0.00 in 0.0 W/m2
22:13 74.8 °F 40.5 °F 29.67 in WSW 2.9 mph 4.0 mph 29% 0.00 in 0.0 W/m2
22:18 74.8 °F 40.5 °F 29.67 in SSW 2.9 mph 3.0 mph 29% 0.00 in 0.0 W/m2
22:23 74.7 °F 40.3 °F 29.67 in SW 2.9 mph 6.0 mph 29% 0.00 in 0.0 W/m2
22:28 74.7 °F 40.3 °F 29.67 in Calm   1.0 mph 29% 0.00 in 0.0 W/m2
22:33 74.7 °F 40.3 °F 29.67 in WSW 2.0 mph 4.0 mph 29% 0.00 in 0.0 W/m2
22:39 74.5 °F 40.1 °F 29.67 in SW 2.0 mph 4.0 mph 29% 0.00 in 0.0 W/m2
22:44 74.5 °F 40.1 °F 29.68 in Calm   3.0 mph 29% 0.00 in 0.0 W/m2
22:49 74.5 °F 40.1 °F 29.68 in Calm   1.0 mph 29% 0.00 in 0.0 W/m2
22:54 74.3 °F 40.8 °F 29.67 in Calm     30% 0.00 in 0.0 W/m2
22:59 74.1 °F 40.6 °F 29.68 in Calm     30% 0.00 in 0.0 W/m2
23:04 73.9 °F 40.5 °F 29.68 in Calm   1.0 mph 30% 0.00 in 0.0 W/m2
23:09 73.9 °F 41.4 °F 29.69 in Calm   2.0 mph 31% 0.00 in 0.0 W/m2
23:14 73.9 °F 41.4 °F 29.69 in Calm   1.0 mph 31% 0.00 in 0.0 W/m2
23:19 73.9 °F 41.4 °F 29.69 in Calm     31% 0.00 in 0.0 W/m2
23:24 73.9 °F 41.4 °F 29.69 in Calm   1.0 mph 31% 0.00 in 0.0 W/m2
23:29 73.8 °F 41.2 °F 29.70 in East 0.9 mph 1.0 mph 31% 0.00 in 0.0 W/m2
23:34 73.6 °F 41.0 °F 29.70 in Calm   1.0 mph 31% 0.00 in 0.0 W/m2
23:40 73.6 °F 41.0 °F 29.70 in Calm   1.0 mph 31% 0.00 in 0.0 W/m2
23:45 73.2 °F 40.8 °F 29.70 in Calm   1.0 mph 31% 0.00 in 0.0 W/m2
23:50 73.0 °F 40.6 °F 29.70 in NE 2.0 mph 5.0 mph 31% 0.00 in 0.0 W/m2
23:55 72.9 °F 40.5 °F 29.71 in Calm   7.0 mph 31% 0.00 in 0.0 W/m2
Olympia, Windhoek, Namibia
Compliments of Weather Underground - 3.25 mb